Weather History for Hartford, CT

Change the Weather History Date:

Friday, July 12, 2013

  Actual Average Record
Temperature  
Mean Temperature 76 °F -  
Max Temperature 82 °F 84 °F 97 °F (1987)
Min Temperature 70 °F 62 °F 48 °F (1945)
Cooling Degree Days 11    
Growing Degree Days 26 (Base 50)    
Moisture  
Dew Point 61 °F    
Average Humidity 63    
Maximum Humidity 76    
Minimum Humidity 53    
Precipitation  
Precipitation 0.00 in - - ()
Sea Level Pressure  
Sea Level Pressure 30.06 in    
Wind  
Wind Speed 9 mph (NNE)    
Max Wind Speed 13 mph    
Max Gust Speed 17 mph    
Visibility 10 miles    
Events      
Averages and records for this station are not official NWS values.
T = Trace of Precipitation, MM = Missing Value Source: NWS Daily Summary

Daily Weather History Graph

Daily Weather History Graph

Search for Another Location

Airport:

Trip Planner

Search our weather history database for the weather conditions in past years. The results will help you decide how hot, cold, wet, or windy it might be!

Date:

Astronomy

Jul. 12, 2013 Rise Set
Actual Time 5:26 AM EDT 8:25 PM EDT
Civil Twilight 4:53 AM EDT 8:58 PM EDT
Nautical Twilight 4:11 AM EDT 9:40 PM EDT
Astronomical Twilight 3:21 AM EDT 10:30 PM EDT
Moon 9:45 AM EDT (7/12) 10:29 PM EDT (7/12)
Length of Visible Light 16h 04m
Length of Day
14h 58m
Waxing Crescent, 17% of the Moon is Illuminated
Jul 12
Waxing Crescent
Jul 15
First Quarter
Jul 22
Full
Jul 29
Last Quarter
Aug 6
New

Hourly Weather History & Observations

Time (EDT) Temp. Heat Index Dew Point Humidity Pressure Visibility Wind Dir Wind Speed Gust Speed Precip Events Conditions
12:53 AM 73.0 °F - 64.9 °F 76% 29.93 in 10.0 mi North 9.2 mph - N/A   Clear
1:53 AM 72.0 °F - 64.0 °F 76% 29.94 in 10.0 mi North 8.1 mph - N/A   Clear
2:53 AM 71.1 °F - 62.1 °F 73% 29.96 in 10.0 mi North 4.6 mph - N/A   Clear
3:53 AM 71.1 °F - 60.1 °F 68% 29.97 in 10.0 mi North 8.1 mph - N/A   Scattered Clouds
4:53 AM 71.1 °F - 60.1 °F 68% 29.99 in 10.0 mi North 6.9 mph - N/A   Partly Cloudy
5:53 AM 70.0 °F - 60.1 °F 71% 30.01 in 10.0 mi North 9.2 mph - N/A   Overcast
6:53 AM 70.0 °F - 60.1 °F 71% 30.03 in 10.0 mi North 10.4 mph - N/A   Partly Cloudy
7:53 AM 71.1 °F - 61.0 °F 70% 30.04 in 10.0 mi North 11.5 mph - N/A   Overcast
8:53 AM 72.0 °F - 61.0 °F 68% 30.06 in 10.0 mi North 8.1 mph - N/A   Overcast
9:53 AM 75.0 °F - 62.1 °F 64% 30.06 in 10.0 mi North 10.4 mph - N/A   Partly Cloudy
10:53 AM 77.0 °F - 62.1 °F 60% 30.06 in 10.0 mi NNE 9.2 mph - N/A   Mostly Cloudy
11:53 AM 79.0 °F - 63.0 °F 58% 30.07 in 10.0 mi NNE 12.7 mph - N/A   Scattered Clouds
12:53 PM 82.0 °F 83.8 °F 64.9 °F 56% 30.06 in 10.0 mi NNE 9.2 mph - N/A   Mostly Cloudy
1:53 PM 82.0 °F 84.1 °F 66.0 °F 58% 30.06 in 10.0 mi NE 10.4 mph - N/A   Overcast
2:53 PM 81.0 °F 82.7 °F 64.9 °F 58% 30.06 in 10.0 mi ENE 10.4 mph - N/A   Mostly Cloudy
3:53 PM 80.1 °F 81.7 °F 64.0 °F 58% 30.07 in 10.0 mi East 8.1 mph 17.3 mph N/A   Mostly Cloudy
4:53 PM 78.1 °F - 64.0 °F 62% 30.08 in 10.0 mi NE 10.4 mph 17.3 mph N/A   Partly Cloudy
5:53 PM 77.0 °F - 64.9 °F 66% 30.09 in 10.0 mi NE 6.9 mph - N/A   Clear
6:53 PM 73.9 °F - 60.1 °F 62% 30.11 in 10.0 mi Variable 6.9 mph 17.3 mph N/A   Mostly Cloudy
7:53 PM 73.0 °F - 57.9 °F 59% 30.12 in 10.0 mi NE 8.1 mph - N/A   Scattered Clouds
8:53 PM 73.0 °F - 55.0 °F 53% 30.13 in 10.0 mi NE 6.9 mph - N/A   Overcast
9:53 PM 72.0 °F - 54.0 °F 53% 30.14 in 10.0 mi NE 8.1 mph - N/A   Overcast
10:53 PM 72.0 °F - 54.0 °F 53% 30.15 in 10.0 mi NE 6.9 mph - N/A   Overcast
11:53 PM 71.1 °F - 55.9 °F 59% 30.17 in 10.0 mi NE 4.6 mph - N/A   Overcast